Probability
13 12 12 12 11 7 4 2 2 1 1 0 0 0 0 0 0 0 0 0 0 0 0 0 0 0 0 0 0 0 0 0 0 0 0 0 0 0 0 0 0 0 0
12 12 12 11 10 8 4 1 1 1 1 0 0 0 0 0 0 0 0 0 0 0 0 0 0 0 0 0 0 0 0 0 0 0 0 0 0 0 0 0 0 0 0
11 11 11 10 10 8 5 2 0 0 0 0 0 0 0 0 0 0 0 0 0 0 0 0 0 0 0 0 0 0 0 0 0 0 0 0 0 0 0 0 0 0 0
10 10 10 10 10 9 7 4 1 0 0 0 0 0 0 0 0 0 0 0 0 0 0 0 0 0 0 0 0 0 0 0 0 0 0 0 0 0 0 0 0 0 0
10 10 10 10 10 10 9 6 3 1 1 1 0 0 0 0 0 0 0 0 0 0 0 0 0 0 0 0 0 0 0 0 0 0 0 0 0 0 0 0 0 0 0
10 10 10 10 11 11 9 6 4 3 3 2 1 0 0 0 0 0 0 0 0 0 0 0 0 0 0 0 0 0 0 0 0 0 0 0 0 0 0 0 0 0 0
10 10 10 11 11 10 9 6 5 5 5 3 1 0 0 0 0 0 0 0 0 0 0 0 0 0 0 0 0 0 0 0 0 0 0 0 0 0 0 0 0 0 0
9 9 10 10 10 9 8 6 5 5 5 4 2 1 0 0 0 0 0 0 0 1 0 0 0 0 0 0 0 0 0 0 0 0 0 0 0 0 0 0 0 0 0
5 6 7 8 8 8 7 6 5 5 5 4 3 1 0 0 0 0 0 0 0 0 0 0 0 0 0 0 0 0 0 0 0 0 0 0 0 0 0 0 0 0 0
4 4 5 6 6 6 5 4 4 4 4 4 3 1 0 0 0 0 0 0 0 0 0 0 0 0 0 0 0 0 0 0 0 0 0 0 0 0 0 0 0 0 0
3 3 3 4 4 4 4 3 3 3 3 4 3 1 0 0 0 0 0 0 0 0 0 0 0 0 0 0 0 0 0 0 0 0 0 0 0 0 0 0 0 0 0
4 4 3 3 3 3 3 3 3 3 3 3 2 1 0 0 0 0 0 0 0 0 0 0 0 0 0 0 0 0 0 0 0 0 0 0 0 0 0 0 0 0 0
6 5 4 3 3 4 3 3 3 3 3 2 1 0 0 0 0 0 0 0 0 0 0 0 0 0 0 0 0 0 0 0 0 0 0 0 0 0 0 0 0 0 0
7 6 5 5 5 5 4 3 3 3 2 1 0 0 0 1 2 1 0 0 0 0 0 0 0 0 0 0 0 0 0 0 0 0 0 0 0 0 0 0 0 0 0
6 5 5 5 5 5 4 4 3 2 2 1 1 1 1 2 3 2 0 0 0 0 0 0 0 0 0 0 0 0 0 0 0 0 0 0 0 0 0 0 0 0 0
3 4 3 2 2 3 3 3 3 3 2 2 2 2 3 3 2 1 0 0 0 0 0 0 0 0 0 0 0 0 0 0 0 0 0 0 0 0 0 0 0 0 0
1 1 1 0 0 1 1 1 2 2 2 2 3 3 3 3 1 0 0 0 0 0 0 0 0 0 0 0 0 0 0 0 0 0 0 0 0 0 0 0 0 0 0
0 0 0 0 0 0 0 0 1 1 0 1 2 2 3 2 1 0 0 0 0 0 0 0 0 0 0 0 0 0 0 0 0 0 0 0 0 0 0 0 0 0 0
0 0 0 0 0 0 0 0 0 0 0 0 1 1 1 1 1 0 0 0 0 0 0 0 0 0 0 0 0 0 0 0 0 0 0 0 0 0 0 0 0 0 0
0 0 0 0 0 0 0 0 0 0 0 0 0 0 0 0 0 0 0 0 0 0 0 0 0 0 0 0 0 0 0 0 0 0 0 0 0 0 0 0 0 0 0
0 0 0 0 0 0 0 0 0 0 0 0 0 0 0 0 0 0 0 0 0 0 0 0 0 0 0 0 0 0 0 0 0 0 0 0 0 0 0 0 0 0 0
0 0 0 0 0 0 0 0 0 0 0 0 0 0 0 0 0 0 0 0 0 0 0 0 0 0 0 0 0 0 0 0 0 0 0 0 0 0 0 0 0 0 0
0 0 0 0 0 0 0 0 0 0 0 0 0 0 0 0 0 0 0 0 0 0 0 0 0 0 0 0 0 0 0 0 0 0 0 0 0 0 0 0 0 0 0
0 0 0 0 0 0 0 0 0 0 0 0 0 0 0 0 0 0 0 0 0 0 0 0 0 0 0 0 0 0 0 0 0 0 0 0 0 0 0 0 0 0 0
0 0 0 0 0 0 0 0 0 0 0 0 0 0 0 0 0 0 0 0 0 0 0 0 0 0 0 0 0 0 0 0 0 0 0 0 0 0 0 0 0 0 0
0 0 0 0 0 0 0 0 0 0 0 0 0 0 0 0 0 0 0 0 0 0 0 0 0 0 0 0 0 0 0 0 0 0 0 0 0 0 0 0 0 0 0
Wind_Speed
4 4 3 3 3 3 3 3 3 3 3 3 2 2 2 1 0 1 2 3 2 3 3 2 2 3 2 3 2 3 3 3 4 4 5 5 6 6 7 7 8 8 8
4 4 4 3 3 3 3 3 3 3 2 2 2 2 1 1 1 1 0 2 1 2 3 3 3 3 3 3 3 4 4 4 4 5 5 6 6 6 7 7 7 8 8
4 4 3 3 3 3 3 2 2 2 2 2 2 2 1 1 1 1 1 1 1 1 2 3 4 4 4 3 3 4 4 4 4 4 5 6 6 6 7 7 8 8 8
5 4 3 3 3 3 3 3 2 2 2 2 2 2 2 2 2 2 1 1 1 0 1 2 4 4 4 3 3 4 4 4 4 5 5 5 6 7 7 8 8 9 9
5 4 3 3 4 3 3 3 3 2 2 2 2 2 2 2 2 2 2 1 1 1 1 1 2 3 3 3 4 4 4 4 4 5 5 6 6 7 8 8 9 9 10
5 4 3 4 4 3 3 3 3 2 2 1 1 1 2 2 2 2 2 2 1 2 2 2 1 1 2 3 4 4 4 5 5 5 6 6 7 8 8 9 10 10 11
5 5 4 4 4 4 4 4 3 3 2 2 2 2 2 3 3 2 2 2 2 2 2 2 2 2 1 2 3 4 5 5 5 6 6 7 8 9 9 10 10 11 11
5 4 5 4 5 4 5 5 4 3 2 2 2 2 3 3 3 3 2 2 2 2 2 2 2 2 2 2 2 4 5 6 6 7 7 7 8 9 10 10 10 11 11
4 4 5 4 4 5 4 5 5 5 3 3 3 3 3 3 1 3 3 2 2 2 2 2 2 2 2 2 2 2 5 6 7 8 8 8 9 10 10 10 10 11 11
4 4 4 4 4 4 4 5 5 4 4 4 3 3 3 3 2 2 3 3 3 3 2 2 2 2 2 2 2 4 5 6 7 8 9 9 10 10 10 11 11 11 12
4 4 4 4 4 4 4 4 4 4 4 4 3 2 3 3 4 3 3 3 3 3 3 3 2 2 2 3 3 4 6 7 7 8 9 10 11 11 11 11 12 12 12
3 4 4 4 4 4 4 4 4 5 4 4 3 3 3 3 3 3 4 4 3 2 3 3 3 2 2 3 3 4 6 6 7 8 9 10 11 11 11 12 12 12 13
3 3 4 4 4 4 4 4 4 4 4 4 4 3 3 3 2 3 4 3 4 3 3 3 3 2 2 2 2 5 5 6 7 8 9 10 10 11 11 12 12 12 13
3 3 4 3 4 3 3 3 3 3 3 3 3 3 3 2 2 3 3 3 3 3 3 3 2 2 2 2 3 6 4 6 8 9 9 10 10 10 11 11 11 12 12
2 3 3 3 3 3 3 3 2 3 3 3 3 3 3 2 2 2 2 3 4 4 4 2 2 2 2 3 4 4 5 6 8 9 9 10 10 10 10 11 11 11 12
2 2 3 3 3 3 3 3 2 2 3 2 2 2 2 2 2 2 2 3 4 4 5 2 3 3 3 3 4 5 5 6 7 8 9 9 9 9 10 10 11 11 12
3 3 3 3 3 3 3 3 3 3 3 3 2 3 3 2 2 2 2 3 3 4 5 4 3 3 4 5 4 4 5 5 4 7 9 9 9 9 9 10 10 11 11
3 3 3 3 3 3 3 4 4 3 4 4 4 3 3 3 3 3 2 3 3 4 4 5 3 3 5 5 5 5 5 4 5 6 8 8 8 9 9 10 10 10 10
2 2 3 3 3 3 3 3 3 4 4 4 4 4 4 4 4 3 3 3 3 3 4 4 4 3 3 3 5 5 5 5 5 5 6 7 8 9 9 9 9 9 10
2 2 3 3 3 3 3 3 3 3 3 3 3 3 4 4 4 4 3 3 3 3 3 4 3 3 3 3 4 4 4 4 5 5 5 6 7 8 8 8 9 9 10
1 2 2 2 2 2 2 2 3 3 3 3 3 3 3 3 4 3 3 3 3 3 3 3 3 3 3 3 3 3 5 5 5 4 5 5 5 5 5 6 7 9 10
1 1 2 2 2 1 2 3 2 3 3 3 3 3 2 3 3 3 4 4 5 4 4 4 4 4 4 4 3 4 4 5 4 3 6 6 5 5 5 5 7 10 10
1 1 1 1 2 1 3 3 3 2 2 2 3 3 2 2 3 3 3 4 4 5 6 5 6 5 4 4 4 5 5 5 6 5 6 6 5 5 5 5 9 9 10
1 1 1 1 1 1 2 2 2 1 1 1 2 2 2 2 2 3 3 3 3 3 4 4 4 4 3 3 4 4 5 5 5 4 4 5 5 6 6 6 7 9 10
1 1 1 1 1 1 2 2 1 1 1 1 1 2 2 2 2 3 3 3 3 3 3 4 5 4 4 4 4 2 3 3 4 4 3 4 5 6 6 5 5 8 9
1 1 0 0 1 1 1 1 1 1 1 1 1 1 2 3 3 3 3 3 3 3 3 2 3 3 3 2 3 3 3 3 3 3 2 3 4 5 5 4 5 6 6
Wind_Direction
170 163 166 168 170 166 171 174 171 157 157 150 152 155 155 162 164 134 107 72 0 348 353 4 360 353 341 341 348 342 329 330 333 334 334 328 324 323 322 318 315 313 315
173 173 171 173 173 174 175 180 171 166 163 164 162 169 178 193 208 207 170 130 65 358 1 5 7 353 347 343 348 346 340 334 337 342 341 339 336 334 335 335 332 324 322
178 177 176 177 174 173 175 176 166 179 176 179 186 190 203 225 226 230 227 221 148 85 13 9 5 356 348 349 348 346 345 342 345 345 343 340 336 333 330 327 326 325 320
184 182 182 180 175 177 183 184 187 190 195 203 204 202 216 223 234 245 232 234 256 198 101 25 358 347 345 342 341 339 345 342 339 337 336 334 332 331 328 325 324 322 319
190 191 189 181 179 183 189 189 198 205 205 217 222 224 236 241 239 237 231 233 250 277 288 77 6 347 340 340 338 334 335 336 331 331 330 327 326 324 320 319 318 318 317
193 195 190 187 184 185 190 194 189 199 212 219 230 244 249 253 248 244 241 235 239 256 278 288 272 314 345 342 340 332 326 326 329 330 329 323 318 317 315 313 314 313 312
192 194 192 188 192 196 197 193 186 187 197 210 227 232 231 228 234 235 242 243 240 253 272 284 286 296 283 334 336 333 326 323 326 324 324 323 318 314 312 311 311 311 311
194 196 195 194 194 196 198 196 192 196 191 206 232 237 228 215 210 224 231 240 250 241 254 274 282 290 301 296 356 343 337 326 324 321 319 318 317 313 311 310 310 310 310
196 199 203 201 201 204 205 205 205 205 203 201 225 248 246 239 227 205 220 228 233 244 254 264 273 285 295 304 307 332 334 326 323 322 318 314 313 313 313 311 309 310 309
196 197 200 202 202 210 211 212 213 219 214 208 208 245 275 292 250 233 212 219 242 256 261 263 265 273 287 297 312 328 327 323 321 319 318 315 313 312 312 312 308 307 307
199 201 198 197 201 205 212 213 210 216 220 217 209 212 230 252 258 254 250 236 241 253 262 262 265 273 287 292 297 331 327 322 321 319 320 318 315 313 313 310 306 305 305
200 208 208 201 202 202 205 210 210 213 221 222 218 217 215 224 231 242 251 255 258 261 268 269 269 277 288 292 312 336 320 318 319 319 319 317 315 313 312 311 309 306 305
203 208 208 208 204 203 200 200 203 207 214 219 221 225 226 234 241 247 249 259 266 267 265 260 265 272 281 287 306 326 309 313 314 316 317 316 315 313 311 310 309 308 308
207 201 204 206 202 199 195 190 193 201 206 211 220 222 223 222 228 234 247 251 263 258 252 259 276 270 293 297 317 301 300 311 312 314 314 314 312 312 311 310 309 309 309
194 191 191 197 198 190 187 181 188 190 192 200 206 213 217 219 225 234 242 249 256 266 264 252 257 277 305 304 314 300 303 311 310 311 312 312 311 310 309 309 312 312 313
175 174 183 183 191 182 178 178 178 187 188 196 206 214 216 218 222 228 230 243 254 259 267 274 273 291 299 297 304 299 303 309 305 310 312 314 316 315 314 316 315 314 314
175 177 184 186 192 191 186 182 187 188 193 199 207 221 227 226 225 232 235 238 245 254 262 277 283 290 294 295 297 302 303 302 306 314 312 313 316 315 318 319 319 319 319
183 183 184 189 194 197 194 192 193 199 206 209 211 217 224 228 231 237 242 244 244 249 258 271 277 286 291 294 300 304 307 305 304 314 312 310 313 316 317 317 319 319 321
184 181 185 192 198 202 201 203 200 206 216 219 219 221 224 226 233 237 245 250 249 252 257 265 274 285 291 294 302 302 306 306 305 308 304 303 311 314 315 316 319 321 322
194 186 189 193 197 202 200 200 201 209 220 223 226 230 236 236 241 243 246 253 256 253 256 264 271 279 291 299 296 301 305 307 307 309 308 309 309 308 311 316 319 322 324
210 199 185 191 197 201 199 203 205 208 214 221 229 237 246 259 268 263 260 260 254 250 257 264 269 278 283 292 295 305 302 307 306 310 314 311 310 307 312 313 317 324 324
194 200 187 192 203 205 188 203 213 215 213 215 227 237 235 238 257 267 276 280 277 262 257 262 266 267 276 285 299 297 302 306 303 324 316 308 308 306 312 312 321 322 321
180 198 201 201 213 194 190 192 196 215 212 214 224 234 241 246 262 264 267 272 280 286 278 272 265 268 273 277 283 285 287 296 299 310 309 299 308 305 312 311 316 317 321
173 174 192 211 216 192 185 183 175 208 218 227 242 249 252 264 280 290 282 279 287 289 291 287 278 280 285 284 277 285 293 301 301 300 306 296 307 308 312 304 306 315 321
165 172 181 201 219 213 189 177 173 191 202 255 269 270 272 273 283 288 279 278 297 315 339 334 331 320 309 299 293 279 280 287 302 305 313 297 305 313 305 295 304 314 318
164 142 149 266 262 258 228 210 196 204 204 251 274 274 274 286 285 285 282 274 280 301 314 332 339 337 323 314 301 281 274 276 297 295 313 312 307 320 307 297 313 318 316